Date String (YYYY-MM-DD hh:mm:ss) UTC,Instrument flags,Ambient pressure (hPa),Sample flow (lpm),Bypass flow (lpm),Sample temperature (°C),Ambient temperature (°C),ASC tube jacket temperature (°C),LED temperature (°C),Box temperature (°C),Sample RH (%),Span deviation,Mass concentration (μg/m³),Mass concentration (μg/m³),Mass concentration (μg/m³)
DateTimeUTC,F1_M11,P_M11,Q1_M11,Q2_M11,T1_M11,T2_M11,T3_M11,T4_M11,T5_M11,U1_M11,ZSPAN_M11,X0_M11,X2_M11,X1_M11
2022-11-10 05:00:00,,0818.6,5.00,0.00,21.5,19.9,00.0,30.4,23.4,18.5,-002.4,0014.09,0006.87,0006.08
2022-11-10 05:01:00,,0818.4,4.99,0.00,21.5,19.9,00.0,30.4,23.4,18.5,-002.6,0013.71,0006.89,0006.10
2022-11-10 05:02:00,,0818.4,5.00,0.00,21.5,19.9,00.0,30.4,23.4,18.5,-002.7,0013.42,0006.89,0006.13
2022-11-10 05:03:00,,0818.4,5.00,0.00,21.5,19.9,00.0,30.4,23.4,18.5,-002.3,0013.41,0006.93,0006.15
2022-11-10 05:04:00,,0818.3,4.99,0.00,21.5,19.8,00.0,30.4,23.3,18.6,-002.2,0014.19,0006.96,0006.16
2022-11-10 05:05:00,,0818.3,5.01,0.00,21.5,19.8,00.0,30.4,23.3,18.6,-002.3,0014.34,0006.95,0006.17
2022-11-10 05:06:00,,0818.3,5.00,0.00,21.6,20.7,00.0,30.3,23.5,18.5,-002.3,0014.35,0006.96,0006.18
2022-11-10 05:07:00,,0818.4,4.99,0.00,21.7,21.7,00.0,30.3,23.7,18.4,-002.1,0014.37,0006.95,0006.18
2022-11-10 05:08:00,,0818.4,5.01,0.00,21.8,21.7,00.0,30.4,23.8,18.3,-001.8,0014.54,0006.97,0006.18
2022-11-10 05:09:00,,0818.4,5.01,0.00,21.8,21.5,00.0,30.4,23.8,18.3,-001.7,0014.71,0006.98,0006.17
2022-11-10 05:10:00,,0818.4,5.00,0.00,21.8,21.3,00.0,30.5,23.8,18.3,-001.5,0014.78,0006.91,0006.18
2022-11-10 05:11:00,,0818.4,4.98,0.00,21.9,21.2,00.0,30.5,23.9,18.2,-001.2,0014.68,0006.86,0006.17
2022-11-10 05:12:00,,0818.4,5.00,0.00,21.9,21.1,00.0,30.5,23.9,18.2,-000.7,0014.47,0006.87,0006.17
2022-11-10 05:13:00,,0818.6,5.01,0.00,21.9,20.9,00.0,30.5,23.8,18.2,0000.1,0014.02,0006.87,0006.17
2022-11-10 05:14:00,,0818.8,5.00,0.00,21.9,20.7,00.0,30.6,23.8,18.2,0000.2,0014.08,0006.88,0006.18
2022-11-10 05:15:00,,0818.8,5.00,0.00,21.9,20.5,00.0,30.6,23.8,18.2,0000.3,0013.12,0006.85,0006.17
2022-11-10 05:16:00,,0818.9,4.99,0.00,21.9,20.4,00.0,30.6,23.7,18.2,0000.4,0012.75,0006.89,0006.19
2022-11-10 05:17:00,,0818.9,5.00,0.00,21.9,20.3,00.0,30.6,23.7,18.3,0000.3,0012.83,0006.88,0006.20
2022-11-10 05:18:00,,0818.8,5.00,0.00,21.8,20.3,00.0,30.6,23.7,18.3,0000.0,0013.42,0006.91,0006.22
2022-11-10 05:19:00,,0818.8,4.99,0.00,21.8,20.3,00.0,30.6,23.7,18.3,-000.2,0015.14,0006.93,0006.24
2022-11-10 05:20:00,,0818.9,5.01,0.00,21.8,20.3,00.0,30.6,23.7,18.3,-000.1,0015.50,0006.94,0006.25
2022-11-10 05:21:00,,0818.9,5.01,0.00,21.8,20.3,00.0,30.6,23.7,18.3,-000.4,0015.13,0007.03,0006.27
2022-11-10 05:22:00,,0819.0,4.99,0.00,21.8,20.4,00.0,30.6,23.7,18.3,-000.3,0014.44,0007.05,0006.29
2022-11-10 05:23:00,,0818.9,4.99,0.00,21.8,20.3,00.0,30.6,23.7,18.3,-000.6,0014.16,0007.03,0006.30
2022-11-10 05:24:00,,0818.9,5.01,0.00,21.8,20.1,00.0,30.6,23.6,18.4,-001.3,0014.16,0007.05,0006.32
2022-11-10 05:25:00,,0819.0,5.01,0.00,21.8,20.1,00.0,30.6,23.6,18.4,-001.2,0014.09,0007.05,0006.32
2022-11-10 05:26:00,,0818.8,5.00,0.00,21.7,20.1,00.0,30.6,23.6,18.5,-001.2,0014.27,0007.09,0006.34
2022-11-10 05:27:00,,0818.6,4.98,0.00,21.7,20.2,00.0,30.6,23.6,18.5,-001.0,0014.27,0007.07,0006.34
2022-11-10 05:28:00,,0818.6,5.01,0.00,21.8,20.3,00.0,30.6,23.6,18.5,-001.0,0014.36,0007.12,0006.35
2022-11-10 05:29:00,,0818.7,5.01,0.00,21.8,20.3,00.0,30.6,23.7,18.5,-001.2,0013.62,0007.12,0006.36
2022-11-10 05:30:00,,0818.4,4.98,0.00,21.8,20.2,00.0,30.6,23.6,18.5,-001.4,0012.65,0007.11,0006.37
2022-11-10 05:31:00,,0818.4,5.00,0.00,21.7,20.2,00.0,30.6,23.6,18.5,-001.4,0012.60,0007.13,0006.37
2022-11-10 05:32:00,,0818.5,5.00,0.00,21.7,20.3,00.0,30.6,23.6,18.5,-001.3,0013.06,0007.11,0006.35
2022-11-10 05:33:00,,0818.4,5.01,0.00,21.7,20.2,00.0,30.6,23.6,18.6,-001.6,0013.28,0007.14,0006.35
2022-11-10 05:34:00,,0818.2,5.00,0.00,21.7,20.1,00.0,30.5,23.5,18.6,-001.6,0013.66,0007.20,0006.36
2022-11-10 05:35:00,,0818.2,5.00,0.00,21.7,20.1,00.0,30.5,23.5,18.6,-001.5,0014.34,0007.23,0006.35
2022-11-10 05:36:00,,0818.2,5.00,0.00,21.7,20.1,00.0,30.5,23.5,18.6,-001.8,0014.76,0007.25,0006.34
2022-11-10 05:37:00,,0818.2,4.99,0.00,21.7,20.1,00.0,30.5,23.5,18.6,-002.1,0015.25,0007.26,0006.34
2022-11-10 05:38:00,,0818.2,5.00,0.00,21.7,20.1,00.0,30.5,23.5,18.6,-002.1,0017.02,0007.27,0006.33
2022-11-10 05:39:00,,0818.3,5.00,0.00,21.7,20.0,00.0,30.5,23.5,18.6,-002.1,0017.01,0007.24,0006.31
2022-11-10 05:40:00,,0818.4,5.01,0.00,21.7,20.0,00.0,30.5,23.5,18.6,-001.9,0016.82,0007.21,0006.30
2022-11-10 05:41:00,,0818.6,5.00,0.00,21.6,20.1,00.0,30.5,23.5,18.6,-001.5,0016.51,0007.18,0006.29
2022-11-10 05:42:00,,0818.7,5.00,0.00,21.7,21.0,00.0,30.5,23.7,18.6,-001.6,0016.27,0007.14,0006.27
2022-11-10 05:43:00,,0818.7,5.00,0.00,21.8,21.7,00.0,30.5,23.9,18.5,-001.5,0015.54,0007.12,0006.27
2022-11-10 05:44:00,,0818.7,4.99,0.00,21.8,21.3,00.0,30.5,23.8,18.5,-001.2,0015.31,0007.08,0006.25
2022-11-10 05:45:00,,0818.5,5.01,0.00,21.8,20.8,00.0,30.6,23.7,18.5,-001.2,0015.15,0007.05,0006.23
2022-11-10 05:46:00,,0818.4,5.00,0.00,21.8,20.4,00.0,30.6,23.6,18.5,-000.8,0014.85,0007.05,0006.23
2022-11-10 05:47:00,,0818.4,5.00,0.00,21.7,20.1,00.0,30.6,23.5,18.6,-000.6,0015.39,0007.04,0006.22
2022-11-10 05:48:00,,0818.2,5.00,0.00,21.7,19.9,00.0,30.6,23.4,18.6,-000.4,0014.87,0007.00,0006.21
2022-11-10 05:49:00,,0818.4,4.99,0.00,21.6,19.8,00.0,30.5,23.4,18.7,-000.4,0013.32,0007.01,0006.21
2022-11-10 05:50:00,,0818.4,4.99,0.00,21.6,19.6,00.0,30.5,23.3,18.7,-000.3,0012.98,0007.02,0006.22
2022-11-10 05:51:00,,0818.4,4.99,0.00,21.5,19.5,00.0,30.5,23.2,18.7,-000.2,0013.09,0007.04,0006.21
2022-11-10 05:52:00,,0818.5,5.00,0.00,21.5,19.4,00.0,30.5,23.2,18.8,-000.2,0012.91,0007.05,0006.19
2022-11-10 05:53:00,,0818.5,5.01,0.00,21.5,19.4,00.0,30.4,23.2,18.8,-000.5,0012.46,0007.03,0006.19
2022-11-10 05:54:00,,0818.6,5.01,0.00,21.4,19.3,00.0,30.4,23.1,18.9,-000.6,0012.75,0007.04,0006.19
2022-11-10 05:55:00,,0818.6,5.00,0.00,21.4,19.2,00.0,30.4,23.1,18.9,-001.0,0013.97,0007.04,0006.19
2022-11-10 05:56:00,,0818.6,5.00,0.00,21.4,19.6,00.0,30.4,23.1,19.0,-000.6,0013.93,0007.04,0006.19
2022-11-10 05:57:00,,0818.8,5.00,0.00,21.4,20.9,00.0,30.3,23.4,18.9,-000.4,0014.01,0006.99,0006.18
2022-11-10 05:58:00,,0819.0,4.99,0.00,21.6,21.7,00.0,30.4,23.6,18.8,-000.6,0013.04,0006.95,0006.18
2022-11-10 05:59:00,,0818.9,5.00,0.00,21.6,21.5,00.0,30.4,23.6,18.7,-001.0,0012.77,0006.90,0006.17
